Terug naar catalogus

STARLINK-4277

ActiefCommunicatieVLEO
NORAD 53009·PAYLOAD·🇺🇸 United States

Gelanceerd Jul 7, 2022 vanaf Cape Canaveral Space Force Station

Loading…

Volgende Passages (komende 24 uur)

TLE

VersSource: CelesTrak SupGP

Epoch: Sep 14, 2026, 21:06 UTC

1 53009C 22076Z   26257.87965278 -.00015907  00000+0 -45515-3 0  2571
2 53009  53.1587 307.8467 0001130  80.7245 258.3496 15.35403986    16

Volg STARLINK-4277 in realtime met AllMySat

Download on the App Store